| time (UTC) | temp C | wind direction | speed KPH | gust KPH | rain 1hr cm | rain 24hr cm | rain mn cm | humidity % | barometer mb |
| 20260506015905 | 3 | 7 | 0.0 | 3.2 | 0.00 | 0.00 | 0.00 | 97 | 1016.5 |
| 20260506015705 | 4 | 28 | 0.0 | 3.2 | 0.00 | 0.00 | 0.00 | 97 | 1016.2 |
| 20260506015505 | 4 | 14 | 0.0 | 3.2 | 0.00 | 0.00 | 0.00 | 97 | 1016.5 |
| 20260506015306 | 4 | 10 | 3.2 | 3.2 | 0.00 | 0.00 | 0.00 | 97 | 1016.4 |
| 20260506015105 | 4 | 122 | 3.2 | 3.2 | 0.00 | 0.00 | 0.00 | 97 | 1016.5 |
| 20260506014907 | 4 | 40 | 0.0 | 3.2 | 0.00 | 0.00 | 0.00 | 97 | 1016.5 |
| 20260506014706 | 4 | 21 | 3.2 | 3.2 | 0.00 | 0.00 | 0.00 | 97 | 1016.5 |
| 20260506014505 | 4 | 33 | 0.0 | 3.2 | 0.00 | 0.00 | 0.00 | 96 | 1016.6 |
| 20260506014305 | 4 | 93 | 0.0 | 3.2 | 0.00 | 0.00 | 0.00 | 96 | 1016.7 |
| 20260506014105 | 4 | 42 | 1.6 | 3.2 | 0.00 | 0.00 | 0.00 | 96 | 1016.5 |
| 20260506013905 | 4 | 113 | 0.0 | 3.2 | 0.00 | 0.00 | 0.00 | 97 | 1016.5 |
| 20260506013705 | 4 | 357 | 3.2 | 3.2 | 0.00 | 0.00 | 0.00 | 97 | 1016.4 |
| 20260506013505 | 4 | 0 | 0.0 | 3.2 | 0.00 | 0.00 | 0.00 | 96 | 1016.5 |
| 20260506013305 | 4 | 14 | 0.0 | 3.2 | 0.00 | 0.00 | 0.00 | 97 | 1016.6 |
| 20260506013105 | 4 | 7 | 0.0 | 3.2 | 0.00 | 0.00 | 0.00 | 96 | 1016.5 |
| 20260506012905 | 4 | 22 | 0.0 | 3.2 | 0.00 | 0.00 | 0.00 | 96 | 1016.4 |
| 20260506012705 | 4 | 356 | 0.0 | 3.2 | 0.00 | 0.00 | 0.00 | 96 | 1016.5 |
| 20260506012507 | 4 | 0 | 0.0 | 3.2 | 0.00 | 0.00 | 0.00 | 96 | 1016.6 |
| 20260506012308 | 4 | 359 | 3.2 | 3.2 | 0.00 | 0.00 | 0.00 | 96 | 1016.4 |
| 20260506012105 | 5 | 9 | 1.6 | 3.2 | 0.00 | 0.00 | 0.00 | 96 | 1016.7 |
| 20260506011905 | 5 | 2 | 1.6 | 3.2 | 0.00 | 0.00 | 0.00 | 96 | 1016.5 |
| 20260506011705 | 4 | 28 | 1.6 | 3.2 | 0.00 | 0.00 | 0.00 | 96 | 1016.5 |
| 20260506011505 | 4 | 71 | 0.0 | 3.2 | 0.00 | 0.00 | 0.00 | 96 | 1016.7 |
| 20260506011305 | 4 | 18 | 0.0 | 4.8 | 0.00 | 0.00 | 0.00 | 96 | 1016.5 |
| 20260506011106 | 4 | 50 | 1.6 | 4.8 | 0.00 | 0.00 | 0.00 | 96 | 1016.4 |
| 20260506010905 | 5 | 0 | 0.0 | 4.8 | 0.00 | 0.00 | 0.00 | 96 | 1016.4 |
| 20260506010705 | 5 | 31 | 1.6 | 4.8 | 0.00 | 0.00 | 0.00 | 96 | 1016.5 |
| 20260506010506 | 5 | 3 | 3.2 | 4.8 | 0.00 | 0.00 | 0.00 | 96 | 1016.5 |
| 20260506010306 | 5 | 358 | 3.2 | 3.2 | 0.00 | 0.00 | 0.00 | 96 | 1016.6 |
| 20260506010106 | 5 | 17 | 3.2 | 3.2 | 0.00 | 0.00 | 0.00 | 96 | 1016.4 |
| 20260506005906 | 5 | 15 | 0.0 | 3.2 | 0.00 | 0.00 | 0.00 | 96 | 1016.6 |
| 20260506005705 | 5 | 351 | 1.6 | 3.2 | 0.00 | 0.00 | 0.00 | 96 | 1016.4 |
| 20260506005505 | 5 | 15 | 0.0 | 3.2 | 0.00 | 0.00 | 0.00 | 96 | 1016.6 |
| 20260506005306 | 5 | 333 | 0.0 | 3.2 | 0.00 | 0.00 | 0.00 | 96 | 1016.6 |
| 20260506005106 | 5 | 328 | 0.0 | 3.2 | 0.00 | 0.00 | 0.00 | 96 | 1016.7 |
| 20260506004906 | 5 | 1 | 1.6 | 4.8 | 0.00 | 0.00 | 0.00 | 96 | 1016.6 |
| 20260506004706 | 5 | 20 | 3.2 | 4.8 | 0.00 | 0.00 | 0.00 | 96 | 1016.6 |
| 20260506004505 | 5 | 15 | 0.0 | 4.8 | 0.00 | 0.00 | 0.00 | 96 | 1016.6 |
| 20260506004306 | 5 | 43 | 1.6 | 4.8 | 0.00 | 0.00 | 0.00 | 96 | 1016.7 |
| 20260506004106 | 5 | 70 | 1.6 | 4.8 | 0.00 | 0.00 | 0.00 | 95 | 1016.5 |
| 20260506003905 | 5 | 30 | 3.2 | 3.2 | 0.00 | 0.00 | 0.00 | 95 | 1016.4 |
| 20260506003706 | 5 | 20 | 0.0 | 3.2 | 0.00 | 0.00 | 0.00 | 95 | 1016.7 |
| 20260506003506 | 5 | 43 | 3.2 | 3.2 | 0.00 | 0.00 | 0.00 | 95 | 1016.7 |
| 20260506003305 | 5 | 71 | 1.6 | 3.2 | 0.00 | 0.00 | 0.00 | 95 | 1016.3 |
| 20260506003105 | 5 | 68 | 1.6 | 3.2 | 0.00 | 0.00 | 0.00 | 95 | 1016.6 |
| 20260506002905 | 5 | 1 | 1.6 | 3.2 | 0.00 | 0.00 | 0.00 | 95 | 1016.3 |
| 20260506002705 | 5 | 351 | 1.6 | 3.2 | 0.00 | 0.00 | 0.00 | 95 | 1016.5 |
| 20260506002505 | 5 | 13 | 3.2 | 3.2 | 0.00 | 0.00 | 0.00 | 95 | 1016.5 |
| 20260506002306 | 5 | 8 | 1.6 | 3.2 | 0.00 | 0.00 | 0.00 | 95 | 1016.5 |
| 20260506002105 | 5 | 5 | 0.0 | 3.2 | 0.00 | 0.00 | 0.00 | 95 | 1016.4 |
| 20260506001905 | 5 | 5 | 1.6 | 3.2 | 0.00 | 0.00 | 0.00 | 95 | 1016.7 |
| 20260506001706 | 5 | 4 | 3.2 | 3.2 | 0.00 | 0.00 | 0.00 | 95 | 1016.6 |
| 20260506001505 | 5 | 16 | 0.0 | 3.2 | 0.00 | 0.00 | 0.00 | 95 | 1016.5 |
| 20260506001306 | 5 | 25 | 0.0 | 3.2 | 0.00 | 0.00 | 0.00 | 95 | 1016.7 |
| 20260506001105 | 5 | 3 | 0.0 | 3.2 | 0.00 | 0.00 | 0.00 | 95 | 1016.6 |
| 20260506000906 | 5 | 5 | 1.6 | 3.2 | 0.00 | 0.00 | 0.00 | 95 | 1016.6 |
| 20260506000705 | 5 | 337 | 1.6 | 3.2 | 0.00 | 0.00 | 0.00 | 95 | 1016.4 |
| 20260506000505 | 5 | 11 | 1.6 | 3.2 | 0.00 | 0.00 | 0.00 | 95 | 1016.7 |
| 20260506000306 | 5 | 356 | 1.6 | 4.8 | 0.00 | 0.00 | 0.00 | 95 | 1016.6 |
| 20260506000106 | 5 | 355 | 0.0 | 4.8 | 0.00 | 0.00 | 0.00 | 95 | 1016.6 |
| 20260505235905 | 5 | 12 | 0.0 | 4.8 | 0.00 | 0.00 | 0.00 | 95 | 1016.7 |
| 20260505235705 | 5 | 1 | 1.6 | 4.8 | 0.00 | 0.00 | 0.00 | 95 | 1016.6 |
| 20260505235505 | 5 | 7 | 0.0 | 4.8 | 0.00 | 0.00 | 0.00 | 95 | 1016.8 |
| 20260505235306 | 5 | 11 | 0.0 | 4.8 | 0.00 | 0.00 | 0.00 | 95 | 1016.8 |
| 20260505235106 | 5 | 4 | 0.0 | 4.8 | 0.00 | 0.00 | 0.00 | 95 | 1016.5 |
| 20260505234906 | 5 | 327 | 3.2 | 4.8 | 0.00 | 0.00 | 0.00 | 95 | 1016.7 |
| 20260505234706 | 5 | 341 | 3.2 | 3.2 | 0.00 | 0.00 | 0.00 | 94 | 1016.8 |
| 20260505234506 | 5 | 7 | 0.0 | 3.2 | 0.00 | 0.00 | 0.00 | 94 | 1016.8 |
| 20260505234306 | 6 | 11 | 1.6 | 3.2 | 0.00 | 0.00 | 0.00 | 94 | 1016.7 |
| 20260505234106 | 6 | 346 | 0.0 | 3.2 | 0.00 | 0.00 | 0.00 | 94 | 1016.7 |
| 20260505233906 | 6 | 94 | 1.6 | 3.2 | 0.00 | 0.00 | 0.00 | 94 | 1016.7 |
| 20260505233706 | 6 | 26 | 0.0 | 3.2 | 0.00 | 0.00 | 0.00 | 94 | 1016.7 |
| 20260505233506 | 6 | 22 | 1.6 | 3.2 | 0.00 | 0.00 | 0.00 | 94 | 1016.6 |
| 20260505233306 | 6 | 1 | 3.2 | 3.2 | 0.00 | 0.00 | 0.00 | 94 | 1016.6 |
| 20260505233210 | 6 | 2 | 0.0 | 3.2 | 0.00 | 0.00 | 0.00 | 94 | 1016.7 |
| 20260505232905 | 6 | 3 | 3.2 | 3.2 | 0.00 | 0.00 | 0.00 | 94 | 1016.8 |
| 20260505232705 | 6 | 100 | 1.6 | 3.2 | 0.00 | 0.00 | 0.00 | 94 | 1017.1 |
| 20260505232505 | 6 | 350 | 1.6 | 3.2 | 0.00 | 0.00 | 0.00 | 94 | 1016.8 |
| 20260505232305 | 6 | 343 | 0.0 | 3.2 | 0.00 | 0.00 | 0.00 | 94 | 1016.8 |
| 20260505232106 | 6 | 7 | 0.0 | 3.2 | 0.00 | 0.00 | 0.00 | 94 | 1017.0 |
| 20260505231929 | 6 | 347 | 1.6 | 3.2 | 0.00 | 0.00 | 0.00 | 94 | 1017.0 |
| 20260505231925 | 6 | 2 | 1.6 | 3.2 | 0.00 | 0.00 | 0.00 | 94 | 1017.0 |
| 20260505231506 | 6 | 27 | 3.2 | 3.2 | 0.00 | 0.00 | 0.00 | 94 | 1017.2 |
| 20260505231306 | 6 | 0 | 1.6 | 3.2 | 0.00 | 0.00 | 0.00 | 94 | 1016.8 |
| 20260505231105 | 6 | 354 | 0.0 | 3.2 | 0.00 | 0.00 | 0.00 | 94 | 1017.0 |
| 20260505230905 | 6 | 349 | 1.6 | 3.2 | 0.00 | 0.00 | 0.00 | 94 | 1016.8 |
| 20260505230706 | 6 | 345 | 1.6 | 3.2 | 0.00 | 0.00 | 0.00 | 94 | 1016.8 |
| 20260505230506 | 6 | 92 | 1.6 | 3.2 | 0.00 | 0.00 | 0.00 | 93 | 1016.8 |
| 20260505230308 | 6 | 12 | 0.0 | 3.2 | 0.00 | 0.00 | 0.00 | 93 | 1017.0 |
| 20260505230106 | 6 | 17 | 0.0 | 3.2 | 0.00 | 0.00 | 0.00 | 93 | 1016.6 |
| 20260505225905 | 6 | 5 | 0.0 | 3.2 | 0.00 | 0.00 | 0.00 | 93 | 1016.6 |
| 20260505225705 | 6 | 351 | 0.0 | 3.2 | 0.00 | 0.00 | 0.00 | 93 | 1016.6 |
| 20260505225505 | 6 | 49 | 0.0 | 3.2 | 0.00 | 0.00 | 0.00 | 93 | 1017.0 |
| 20260505225306 | 6 | 52 | 1.6 | 3.2 | 0.00 | 0.00 | 0.00 | 92 | 1017.2 |
| 20260505225105 | 6 | 317 | 0.0 | 3.2 | 0.00 | 0.00 | 0.00 | 92 | 1017.0 |
| 20260505224906 | 6 | 16 | 1.6 | 3.2 | 0.00 | 0.00 | 0.00 | 92 | 1017.1 |
| 20260505224705 | 6 | 171 | 0.0 | 3.2 | 0.00 | 0.00 | 0.00 | 92 | 1017.1 |
| 20260505224505 | 6 | 339 | 0.0 | 4.8 | 0.00 | 0.00 | 0.00 | 92 | 1017.0 |
| 20260505224305 | 7 | 12 | 0.0 | 4.8 | 0.00 | 0.00 | 0.00 | 92 | 1017.1 |
| 20260505224105 | 7 | 4 | 0.0 | 4.8 | 0.00 | 0.00 | 0.00 | 92 | 1017.0 |
| 20260505223906 | 7 | 13 | 3.2 | 4.8 | 0.00 | 0.00 | 0.00 | 92 | 1016.8 |
| 20260505223707 | 7 | 357 | 3.2 | 4.8 | 0.00 | 0.00 | 0.00 | 92 | 1017.0 |
| 20260505223506 | 7 | 7 | 3.2 | 4.8 | 0.00 | 0.00 | 0.00 | 92 | 1016.7 |
| 20260505223306 | 7 | 13 | 0.0 | 3.2 | 0.00 | 0.00 | 0.00 | 91 | 1016.8 |
| 20260505223105 | 7 | 27 | 0.0 | 3.2 | 0.00 | 0.00 | 0.00 | 91 | 1016.7 |
| 20260505222905 | 7 | 32 | 3.2 | 3.2 | 0.00 | 0.00 | 0.00 | 91 | 1017.2 |
| 20260505222706 | 7 | 0 | 1.6 | 3.2 | 0.00 | 0.00 | 0.00 | 91 | 1017.1 |
| 20260505222505 | 7 | 350 | 1.6 | 3.2 | 0.00 | 0.00 | 0.00 | 91 | 1017.1 |
| 20260505222306 | 7 | 311 | 0.0 | 3.2 | 0.00 | 0.00 | 0.00 | 91 | 1017.1 |
| 20260505222105 | 7 | 8 | 0.0 | 3.2 | 0.00 | 0.00 | 0.00 | 90 | 1017.3 |
| 20260505221905 | 7 | 6 | 0.0 | 3.2 | 0.00 | 0.00 | 0.00 | 90 | 1017.1 |
| 20260505221705 | 7 | 5 | 0.0 | 3.2 | 0.00 | 0.00 | 0.00 | 90 | 1017.2 |
| 20260505221505 | 7 | 351 | 0.0 | 3.2 | 0.00 | 0.00 | 0.00 | 90 | 1017.2 |
| 20260505221305 | 7 | 7 | 0.0 | 3.2 | 0.00 | 0.00 | 0.00 | 91 | 1017.0 |
| 20260505221106 | 7 | 345 | 0.0 | 4.8 | 0.00 | 0.00 | 0.00 | 91 | 1016.7 |
| 20260505220906 | 7 | 172 | 0.0 | 4.8 | 0.00 | 0.00 | 0.00 | 91 | 1016.7 |
| 20260505220706 | 7 | 19 | 0.0 | 4.8 | 0.00 | 0.00 | 0.00 | 91 | 1017.1 |
| 20260505220506 | 7 | 29 | 0.0 | 4.8 | 0.00 | 0.00 | 0.00 | 91 | 1017.1 |
| 20260505220306 | 7 | 31 | 3.2 | 4.8 | 0.00 | 0.00 | 0.00 | 91 | 1016.7 |
| 20260505220105 | 7 | 0 | 3.2 | 3.2 | 0.00 | 0.00 | 0.00 | 91 | 1016.8 |
| 20260505215905 | 7 | 30 | 3.2 | 3.2 | 0.00 | 0.00 | 0.00 | 91 | 1016.8 |
| 20260505215705 | 7 | 23 | 3.2 | 3.2 | 0.00 | 0.00 | 0.00 | 91 | 1016.8 |
| 20260505215508 | 7 | 7 | 0.0 | 3.2 | 0.00 | 0.00 | 0.00 | 91 | 1017.0 |
| 20260505215306 | 7 | 28 | 0.0 | 3.2 | 0.00 | 0.00 | 0.00 | 91 | 1017.1 |
| 20260505215105 | 7 | 69 | 0.0 | 3.2 | 0.00 | 0.00 | 0.00 | 91 | 1017.0 |
| 20260505214905 | 7 | 15 | 0.0 | 3.2 | 0.00 | 0.00 | 0.00 | 90 | 1017.0 |
| 20260505214705 | 7 | 29 | 3.2 | 3.2 | 0.00 | 0.00 | 0.00 | 90 | 1016.8 |
| 20260505214505 | 7 | 47 | 1.6 | 3.2 | 0.00 | 0.00 | 0.00 | 90 | 1016.8 |
| 20260505214305 | 7 | 64 | 0.0 | 3.2 | 0.00 | 0.00 | 0.00 | 89 | 1016.8 |
| 20260505214105 | 7 | 81 | 0.0 | 3.2 | 0.00 | 0.00 | 0.00 | 89 | 1016.7 |
| 20260505213905 | 7 | 46 | 0.0 | 3.2 | 0.00 | 0.00 | 0.00 | 89 | 1017.0 |
| 20260505213705 | 7 | 28 | 1.6 | 3.2 | 0.00 | 0.00 | 0.00 | 89 | 1017.0 |
| 20260505213505 | 7 | 2 | 0.0 | 3.2 | 0.00 | 0.00 | 0.00 | 89 | 1016.8 |
| 20260505213306 | 8 | 20 | 3.2 | 3.2 | 0.00 | 0.00 | 0.00 | 89 | 1016.8 |
| 20260505213106 | 8 | 9 | 3.2 | 3.2 | 0.00 | 0.00 | 0.00 | 88 | 1016.6 |
| 20260505212906 | 8 | 14 | 0.0 | 3.2 | 0.00 | 0.00 | 0.00 | 88 | 1017.0 |
| 20260505212705 | 8 | 357 | 0.0 | 3.2 | 0.00 | 0.00 | 0.00 | 88 | 1017.1 |
| 20260505212506 | 8 | 17 | 1.6 | 3.2 | 0.00 | 0.00 | 0.00 | 87 | 1017.0 |
| 20260505212306 | 8 | 353 | 1.6 | 3.2 | 0.00 | 0.00 | 0.00 | 87 | 1017.0 |
| 20260505212105 | 8 | 7 | 0.0 | 4.8 | 0.00 | 0.00 | 0.00 | 87 | 1016.6 |
| 20260505211905 | 8 | 8 | 0.0 | 4.8 | 0.00 | 0.00 | 0.00 | 87 | 1016.8 |
| 20260505211705 | 8 | 8 | 1.6 | 4.8 | 0.00 | 0.00 | 0.00 | 87 | 1016.8 |
| 20260505211506 | 8 | 6 | 1.6 | 4.8 | 0.00 | 0.00 | 0.00 | 87 | 1016.8 |
| 20260505211307 | 8 | 333 | 3.2 | 4.8 | 0.00 | 0.00 | 0.00 | 87 | 1016.8 |
| 20260505211105 | 8 | 0 | 0.0 | 3.2 | 0.00 | 0.00 | 0.00 | 87 | 1017.0 |
| 20260505210905 | 8 | 13 | 1.6 | 3.2 | 0.00 | 0.00 | 0.00 | 87 | 1017.0 |
| 20260505210707 | 8 | 333 | 1.6 | 3.2 | 0.00 | 0.00 | 0.00 | 87 | 1016.8 |
| 20260505210505 | 8 | 345 | 3.2 | 3.2 | 0.00 | 0.00 | 0.00 | 87 | 1017.0 |
| 20260505210306 | 8 | 5 | 0.0 | 4.8 | 0.00 | 0.00 | 0.00 | 87 | 1016.7 |
| 20260505210105 | 8 | 356 | 0.0 | 4.8 | 0.00 | 0.00 | 0.00 | 86 | 1016.8 |
| 20260505205906 | 8 | 0 | 3.2 | 4.8 | 0.00 | 0.00 | 0.00 | 86 | 1017.1 |
| 20260505205706 | 8 | 326 | 3.2 | 4.8 | 0.00 | 0.00 | 0.00 | 86 | 1017.0 |
| 20260505205505 | 8 | 0 | 3.2 | 4.8 | 0.00 | 0.00 | 0.00 | 86 | 1016.8 |
| 20260505205305 | 8 | 342 | 0.0 | 3.2 | 0.00 | 0.00 | 0.00 | 86 | 1016.7 |
| 20260505205105 | 8 | 9 | 0.0 | 3.2 | 0.00 | 0.00 | 0.00 | 86 | 1016.6 |
| 20260505204905 | 8 | 354 | 0.0 | 3.2 | 0.00 | 0.00 | 0.00 | 85 | 1016.7 |
| 20260505204705 | 8 | 14 | 0.0 | 4.8 | 0.00 | 0.00 | 0.00 | 85 | 1016.7 |
| 20260505204506 | 8 | 341 | 3.2 | 4.8 | 0.00 | 0.00 | 0.00 | 85 | 1016.7 |
| 20260505204306 | 8 | 345 | 1.6 | 4.8 | 0.00 | 0.00 | 0.00 | 84 | 1016.7 |
| 20260505204106 | 8 | 341 | 3.2 | 4.8 | 0.00 | 0.00 | 0.00 | 85 | 1016.7 |
| 20260505203906 | 8 | 311 | 0.0 | 4.8 | 0.00 | 0.00 | 0.00 | 84 | 1016.7 |
| 20260505203706 | 8 | 0 | 3.2 | 3.2 | 0.00 | 0.00 | 0.00 | 84 | 1016.7 |
| 20260505203506 | 8 | 292 | 3.2 | 3.2 | 0.00 | 0.00 | 0.00 | 84 | 1016.6 |
| 20260505203306 | 8 | 316 | 3.2 | 3.2 | 0.00 | 0.00 | 0.00 | 84 | 1016.5 |
| 20260505203106 | 8 | 3 | 0.0 | 3.2 | 0.00 | 0.00 | 0.00 | 84 | 1016.7 |
| 20260505202905 | 9 | 1 | 1.6 | 3.2 | 0.00 | 0.00 | 0.00 | 84 | 1016.6 |
| 20260505202705 | 9 | 353 | 0.0 | 4.8 | 0.00 | 0.00 | 0.00 | 84 | 1016.6 |
| 20260505202307 | 9 | 341 | 1.6 | 4.8 | 0.00 | 0.00 | 0.00 | 84 | 1016.8 |
| 20260505202105 | 9 | 345 | 3.2 | 4.8 | 0.00 | 0.00 | 0.00 | 84 | 1016.5 |
| 20260505201905 | 9 | 335 | 3.2 | 3.2 | 0.00 | 0.00 | 0.00 | 83 | 1016.6 |
| 20260505201705 | 9 | 0 | 3.2 | 3.2 | 0.00 | 0.00 | 0.00 | 83 | 1016.5 |
| 20260505201506 | 9 | 346 | 0.0 | 3.2 | 0.00 | 0.00 | 0.00 | 83 | 1016.6 |
| 20260505201306 | 9 | 339 | 1.6 | 3.2 | 0.00 | 0.00 | 0.00 | 83 | 1016.6 |
| 20260505201106 | 9 | 353 | 0.0 | 3.2 | 0.00 | 0.00 | 0.00 | 83 | 1016.6 |
| 20260505200906 | 9 | 4 | 0.0 | 4.8 | 0.00 | 0.00 | 0.00 | 83 | 1016.6 |
| 20260505200706 | 10 | 2 | 0.0 | 4.8 | 0.00 | 0.00 | 0.00 | 83 | 1016.4 |
| 20260505200505 | 9 | 21 | 1.6 | 4.8 | 0.00 | 0.00 | 0.00 | 83 | 1016.4 |
| 20260505200305 | 10 | 335 | 1.6 | 4.8 | 0.00 | 0.00 | 0.00 | 82 | 1016.3 |
| 20260505200106 | 10 | 29 | 3.2 | 4.8 | 0.00 | 0.00 | 0.00 | 82 | 1016.3 |
| 20260505195905 | 10 | 66 | 1.6 | 4.8 | 0.00 | 0.00 | 0.00 | 82 | 1016.4 |
| 20260505195706 | 10 | 31 | 3.2 | 4.8 | 0.00 | 0.00 | 0.00 | 82 | 1016.4 |
| 20260505195505 | 9 | 49 | 1.6 | 4.8 | 0.00 | 0.00 | 0.00 | 82 | 1016.5 |
| 20260505195305 | 10 | 65 | 1.6 | 4.8 | 0.00 | 0.00 | 0.00 | 82 | 1016.2 |
| 20260505195105 | 10 | 7 | 0.0 | 4.8 | 0.00 | 0.00 | 0.00 | 82 | 1016.4 |
| 20260505194907 | 10 | 0 | 1.6 | 3.2 | 0.00 | 0.00 | 0.00 | 82 | 1016.5 |
| 20260505194705 | 10 | 25 | 0.0 | 3.2 | 0.00 | 0.00 | 0.00 | 82 | 1016.1 |
| 20260505194506 | 10 | 322 | 1.6 | 3.2 | 0.00 | 0.00 | 0.00 | 82 | 1016.2 |
| 20260505194305 | 10 | 38 | 1.6 | 3.2 | 0.00 | 0.00 | 0.00 | 81 | 1016.2 |
| 20260505194105 | 10 | 238 | 0.0 | 6.4 | 0.00 | 0.00 | 0.00 | 81 | 1016.3 |
| 20260505193905 | 10 | 102 | 1.6 | 6.4 | 0.00 | 0.00 | 0.00 | 80 | 1016.2 |
| 20260505193705 | 10 | 197 | 1.6 | 6.4 | 0.00 | 0.00 | 0.00 | 80 | 1016.3 |
| 20260505193506 | 10 | 183 | 0.0 | 6.4 | 0.00 | 0.00 | 0.00 | 78 | 1016.5 |
| 20260505193306 | 10 | 95 | 3.2 | 6.4 | 0.00 | 0.00 | 0.00 | 78 | 1016.2 |
| 20260505193106 | 10 | 228 | 0.0 | 3.2 | 0.00 | 0.00 | 0.00 | 78 | 1016.1 |
| 20260505192906 | 10 | 308 | 0.0 | 3.2 | 0.00 | 0.00 | 0.00 | 78 | 1016.3 |
| 20260505192706 | 11 | 219 | 0.0 | 4.8 | 0.00 | 0.00 | 0.00 | 77 | 1016.3 |
| 20260505192505 | 11 | 164 | 0.0 | 4.8 | 0.00 | 0.00 | 0.00 | 76 | 1016.2 |
| 20260505192306 | 11 | 89 | 0.0 | 4.8 | 0.00 | 0.00 | 0.00 | 73 | 1016.0 |
| 20260505192105 | 11 | 71 | 0.0 | 4.8 | 0.00 | 0.00 | 0.00 | 72 | 1016.0 |
| 20260505191905 | 11 | 312 | 1.6 | 4.8 | 0.00 | 0.00 | 0.00 | 73 | 1016.1 |
| 20260505191706 | 11 | 272 | 3.2 | 4.8 | 0.00 | 0.00 | 0.00 | 73 | 1016.2 |
| 20260505191506 | 11 | 49 | 0.0 | 3.2 | 0.00 | 0.00 | 0.00 | 74 | 1016.1 |
| 20260505191306 | 11 | 96 | 3.2 | 3.2 | 0.00 | 0.00 | 0.00 | 74 | 1016.2 |
| 20260505191105 | 11 | 322 | 1.6 | 3.2 | 0.00 | 0.00 | 0.00 | 73 | 1016.0 |
| 20260505190906 | 11 | 278 | 0.0 | 3.2 | 0.00 | 0.00 | 0.00 | 73 | 1016.0 |
| 20260505190709 | 12 | 71 | 0.0 | 3.2 | 0.00 | 0.00 | 0.00 | 74 | 1016.2 |
| 20260505190506 | 11 | 23 | 0.0 | 3.2 | 0.00 | 0.00 | 0.00 | 74 | 1016.1 |
| 20260505190305 | 12 | 41 | 3.2 | 3.2 | 0.00 | 0.00 | 0.00 | 73 | 1015.8 |
| 20260505190105 | 12 | 84 | 1.6 | 3.2 | 0.00 | 0.00 | 0.00 | 73 | 1016.0 |
| 20260505185905 | 12 | 101 | 1.6 | 3.2 | 0.00 | 0.00 | 0.00 | 72 | 1016.0 |
| 20260505185706 | 12 | 37 | 0.0 | 3.2 | 0.00 | 0.00 | 0.00 | 72 | 1015.7 |
| 20260505185506 | 12 | 54 | 0.0 | 3.2 | 0.00 | 0.00 | 0.00 | 71 | 1015.8 |
| 20260505185306 | 12 | 55 | 3.2 | 4.8 | 0.00 | 0.00 | 0.00 | 73 | 1015.9 |
| 20260505185105 | 12 | 81 | 3.2 | 4.8 | 0.00 | 0.00 | 0.00 | 73 | 1016.0 |
| 20260505184906 | 12 | 32 | 0.0 | 4.8 | 0.00 | 0.00 | 0.00 | 73 | 1016.0 |
| 20260505184706 | 12 | 22 | 0.0 | 4.8 | 0.00 | 0.00 | 0.00 | 72 | 1015.9 |
| 20260505184506 | 12 | 59 | 1.6 | 4.8 | 0.00 | 0.00 | 0.00 | 72 | 1015.8 |
| 20260505184307 | 12 | 70 | 3.2 | 3.2 | 0.00 | 0.00 | 0.00 | 72 | 1015.8 |
| 20260505184105 | 12 | 25 | 0.0 | 1.6 | 0.00 | 0.00 | 0.00 | 71 | 1016.0 |
| 20260505183905 | 12 | 260 | 0.0 | 1.6 | 0.00 | 0.00 | 0.00 | 71 | 1015.8 |
| 20260505183706 | 12 | 237 | 0.0 | 1.6 | 0.00 | 0.00 | 0.00 | 71 | 1015.9 |
| 20260505183506 | 12 | 290 | 0.0 | 1.6 | 0.00 | 0.00 | 0.00 | 70 | 1015.8 |
| 20260505183306 | 12 | 162 | 0.0 | 1.6 | 0.00 | 0.00 | 0.00 | 69 | 1015.8 |
| 20260505183105 | 12 | 102 | 0.0 | 1.6 | 0.00 | 0.00 | 0.00 | 69 | 1015.8 |
| 20260505182906 | 12 | 48 | 0.0 | 1.6 | 0.00 | 0.00 | 0.00 | 70 | 1015.7 |
| 20260505182706 | 13 | 358 | 0.0 | 1.6 | 0.00 | 0.00 | 0.00 | 70 | 1015.8 |
| 20260505182506 | 13 | 215 | 0.0 | 1.6 | 0.00 | 0.00 | 0.00 | 68 | 1015.7 |
| 20260505182306 | 13 | 306 | 0.0 | 1.6 | 0.00 | 0.00 | 0.00 | 67 | 1015.7 |
| 20260505182105 | 13 | 310 | 1.6 | 1.6 | 0.00 | 0.00 | 0.00 | 68 | 1015.6 |
| 20260505181905 | 13 | 311 | 0.0 | 1.6 | 0.00 | 0.00 | 0.00 | 68 | 1015.5 |
| 20260505181705 | 13 | 132 | 0.0 | 1.6 | 0.00 | 0.00 | 0.00 | 67 | 1015.7 |
| 20260505181506 | 13 | 135 | 0.0 | 3.2 | 0.00 | 0.00 | 0.00 | 67 | 1015.6 |
| 20260505181306 | 13 | 347 | 0.0 | 3.2 | 0.00 | 0.00 | 0.00 | 66 | 1015.5 |
| 20260505181106 | 13 | 135 | 0.0 | 3.2 | 0.00 | 0.00 | 0.00 | 65 | 1015.7 |
| 20260505180905 | 13 | 211 | 0.0 | 3.2 | 0.00 | 0.00 | 0.00 | 65 | 1015.6 |
| 20260505180705 | 13 | 205 | 0.0 | 3.2 | 0.00 | 0.00 | 0.00 | 63 | 1015.4 |
| 20260505180506 | 13 | 205 | 1.6 | 3.2 | 0.00 | 0.00 | 0.00 | 66 | 1015.5 |
| 20260505180306 | 13 | 149 | 1.6 | 3.2 | 0.00 | 0.00 | 0.00 | 66 | 1015.4 |
| 20260505180105 | 13 | 41 | 0.0 | 3.2 | 0.00 | 0.00 | 0.00 | 66 | 1015.4 |
| 20260505175905 | 13 | 37 | 0.0 | 3.2 | 0.00 | 0.00 | 0.00 | 66 | 1015.4 |
| 20260505175705 | 14 | 303 | 1.6 | 3.2 | 0.00 | 0.00 | 0.00 | 64 | 1015.3 |
| 20260505175506 | 14 | 225 | 0.0 | 3.2 | 0.00 | 0.00 | 0.00 | 64 | 1015.4 |
| 20260505175306 | 14 | 186 | 0.0 | 3.2 | 0.00 | 0.00 | 0.00 | 63 | 1015.4 |
| 20260505175105 | 15 | 72 | 0.0 | 3.2 | 0.00 | 0.00 | 0.00 | 60 | 1015.5 |
| 20260505174905 | 15 | 133 | 0.0 | 3.2 | 0.00 | 0.00 | 0.00 | 60 | 1015.3 |
| 20260505174705 | 15 | 91 | 0.0 | 3.2 | 0.00 | 0.00 | 0.00 | 60 | 1015.3 |
| 20260505174505 | 15 | 180 | 1.6 | 3.2 | 0.00 | 0.00 | 0.00 | 56 | 1015.3 |
| 20260505174307 | 15 | 306 | 0.0 | 3.2 | 0.00 | 0.00 | 0.00 | 58 | 1015.4 |
| 20260505174105 | 15 | 315 | 0.0 | 3.2 | 0.00 | 0.00 | 0.00 | 58 | 1015.0 |
| 20260505173706 | 15 | 232 | 0.0 | 3.2 | 0.00 | 0.00 | 0.00 | 56 | 1015.2 |
| 20260505173505 | 16 | 165 | 1.6 | 3.2 | 0.00 | 0.00 | 0.00 | 58 | 1015.3 |
| 20260505173305 | 16 | 186 | 0.0 | 1.6 | 0.00 | 0.00 | 0.00 | 55 | 1015.2 |
| 20260505173106 | 16 | 293 | 0.0 | 1.6 | 0.00 | 0.00 | 0.00 | 55 | 1015.2 |
| 20260505172905 | 16 | 217 | 0.0 | 1.6 | 0.00 | 0.00 | 0.00 | 55 | 1015.1 |
| 20260505172705 | 16 | 224 | 0.0 | 1.6 | 0.00 | 0.00 | 0.00 | 54 | 1015.1 |
| 20260505172505 | 17 | 310 | 0.0 | 1.6 | 0.00 | 0.00 | 0.00 | 54 | 1015.2 |
| 20260505172306 | 17 | 186 | 0.0 | 1.6 | 0.00 | 0.00 | 0.00 | 55 | 1015.3 |
| 20260505172105 | 17 | 176 | 0.0 | 1.6 | 0.00 | 0.00 | 0.00 | 54 | 1015.2 |
| 20260505171906 | 17 | 0 | 0.0 | 1.6 | 0.00 | 0.00 | 0.00 | 55 | 1015.2 |
| 20260505171706 | 17 | 243 | 0.0 | 1.6 | 0.00 | 0.00 | 0.00 | 53 | 1015.2 |
| 20260505171610 | 17 | 343 | 0.0 | 3.2 | 0.00 | 0.00 | 0.00 | 52 | 1015.1 |
| 20260505171305 | 18 | 212 | 0.0 | 3.2 | 0.00 | 0.00 | 0.00 | 53 | 1015.2 |
| 20260505171106 | 18 | 285 | 1.6 | 3.2 | 0.00 | 0.00 | 0.00 | 53 | 1015.1 |
| 20260505170906 | 18 | 192 | 0.0 | 3.2 | 0.00 | 0.00 | 0.00 | 51 | 1015.0 |
| 20260505170705 | 18 | 203 | 0.0 | 3.2 | 0.00 | 0.00 | 0.00 | 50 | 1015.1 |
| 20260505170506 | 19 | 193 | 1.6 | 3.2 | 0.00 | 0.00 | 0.00 | 49 | 1015.3 |
| 20260505170306 | 19 | 213 | 0.0 | 3.2 | 0.00 | 0.00 | 0.00 | 47 | 1015.2 |
| 20260505170106 | 20 | 194 | 0.0 | 3.2 | 0.00 | 0.00 | 0.00 | 45 | 1015.1 |
| 20260505165909 | 20 | 22 | 0.0 | 3.2 | 0.00 | 0.00 | 0.00 | 45 | 1015.2 |
| 20260505165705 | 20 | 195 | 0.0 | 3.2 | 0.00 | 0.00 | 0.00 | 44 | 1015.4 |
| 20260505165505 | 20 | 166 | 0.0 | 3.2 | 0.00 | 0.00 | 0.00 | 42 | 1015.2 |
| 20260505165306 | 20 | 174 | 0.0 | 3.2 | 0.00 | 0.00 | 0.00 | 42 | 1015.4 |
| 20260505165105 | 20 | 179 | 1.6 | 3.2 | 0.00 | 0.00 | 0.00 | 41 | 1015.2 |
| 20260505164905 | 20 | 204 | 0.0 | 3.2 | 0.00 | 0.00 | 0.00 | 42 | 1015.2 |
| 20260505164705 | 21 | 300 | 1.6 | 3.2 | 0.00 | 0.00 | 0.00 | 40 | 1015.2 |
| 20260505164508 | 21 | 212 | 0.0 | 3.2 | 0.00 | 0.00 | 0.00 | 40 | 1015.2 |
| 20260505164306 | 21 | 353 | 0.0 | 3.2 | 0.00 | 0.00 | 0.00 | 39 | 1015.2 |
| 20260505164105 | 21 | 0 | 0.0 | 3.2 | 0.00 | 0.00 | 0.00 | 38 | 1015.2 |
| 20260505163905 | 21 | 333 | 0.0 | 3.2 | 0.00 | 0.00 | 0.00 | 37 | 1015.2 |
| 20260505163705 | 21 | 343 | 0.0 | 3.2 | 0.00 | 0.00 | 0.00 | 35 | 1015.1 |
| 20260505163505 | 21 | 302 | 0.0 | 3.2 | 0.00 | 0.00 | 0.00 | 36 | 1015.0 |
| 20260505163305 | 22 | 185 | 0.0 | 3.2 | 0.00 | 0.00 | 0.00 | 36 | 1015.2 |
| 20260505163105 | 22 | 225 | 0.0 | 3.2 | 0.00 | 0.00 | 0.00 | 36 | 1015.1 |
| 20260505162905 | 22 | 11 | 3.2 | 3.2 | 0.00 | 0.00 | 0.00 | 35 | 1015.1 |
| 20260505162705 | 22 | 357 | 0.0 | 3.2 | 0.00 | 0.00 | 0.00 | 35 | 1015.0 |
| 20260505162505 | 22 | 268 | 0.0 | 3.2 | 0.00 | 0.00 | 0.00 | 34 | 1015.1 |
| 20260505162307 | 22 | 213 | 0.0 | 6.4 | 0.00 | 0.00 | 0.00 | 35 | 1015.1 |
| 20260505162105 | 22 | 345 | 0.0 | 8.0 | 0.00 | 0.00 | 0.00 | 34 | 1015.0 |
| 20260505161907 | 22 | 0 | 0.0 | 8.0 | 0.00 | 0.00 | 0.00 | 35 | 1015.2 |
| 20260505161705 | 22 | 25 | 0.0 | 8.0 | 0.00 | 0.00 | 0.00 | 34 | 1015.2 |
| 20260505161506 | 22 | 42 | 0.0 | 8.0 | 0.00 | 0.00 | 0.00 | 34 | 1015.1 |
| 20260505161306 | 22 | 20 | 3.2 | 8.0 | 0.00 | 0.00 | 0.00 | 33 | 1015.1 |
| 20260505161105 | 22 | 41 | 0.0 | 6.4 | 0.00 | 0.00 | 0.00 | 33 | 1015.1 |
| 20260505160905 | 22 | 2 | 3.2 | 6.4 | 0.00 | 0.00 | 0.00 | 33 | 1015.3 |
| 20260505160705 | 22 | 359 | 0.0 | 6.4 | 0.00 | 0.00 | 0.00 | 32 | 1015.2 |
| 20260505160505 | 21 | 25 | 0.0 | 6.4 | 0.00 | 0.00 | 0.00 | 33 | 1015.3 |
| 20260505160305 | 21 | 327 | 0.0 | 8.0 | 0.00 | 0.00 | 0.00 | 34 | 1015.3 |
| 20260505160105 | 22 | 312 | 0.0 | 8.0 | 0.00 | 0.00 | 0.00 | 34 | 1015.4 |
| 20260505153305 | 22 | 185 | 0.0 | 8.0 | 0.00 | 0.00 | 0.00 | 33 | 1015.4 |
| 20260505153105 | 21 | 269 | 4.8 | 8.0 | 0.00 | 0.00 | 0.00 | 33 | 1015.3 |
| 20260505152905 | 21 | 211 | 1.6 | 8.0 | 0.00 | 0.00 | 0.00 | 35 | 1015.4 |
| 20260505152705 | 21 | 14 | 0.0 | 8.0 | 0.00 | 0.00 | 0.00 | 34 | 1015.2 |
| 20260505152505 | 21 | 28 | 3.2 | 8.0 | 0.00 | 0.00 | 0.00 | 35 | 1015.5 |
| 20260505152105 | 21 | 34 | 0.0 | 8.0 | 0.00 | 0.00 | 0.00 | 34 | 1015.4 |
| 20260505151905 | 22 | 31 | 3.2 | 6.4 | 0.00 | 0.00 | 0.00 | 34 | 1015.4 |
| 20260505151705 | 22 | 170 | 3.2 | 8.0 | 0.00 | 0.00 | 0.00 | 34 | 1015.3 |
| 20260505151506 | 22 | 51 | 3.2 | 8.0 | 0.00 | 0.00 | 0.00 | 33 | 1015.3 |
| 20260505151305 | 22 | 203 | 0.0 | 8.0 | 0.00 | 0.00 | 0.00 | 32 | 1015.5 |
| 20260505151105 | 22 | 12 | 1.6 | 8.0 | 0.00 | 0.00 | 0.00 | 33 | 1015.5 |
| 20260505150905 | 22 | 263 | 1.6 | 8.0 | 0.00 | 0.00 | 0.00 | 32 | 1015.2 |
| 20260505150705 | 22 | 230 | 0.0 | 9.7 | 0.00 | 0.00 | 0.00 | 33 | 1015.3 |
| 20260505150505 | 22 | 175 | 0.0 | 9.7 | 0.00 | 0.00 | 0.00 | 32 | 1015.4 |
| 20260505150305 | 22 | 278 | 3.2 | 9.7 | 0.00 | 0.00 | 0.00 | 32 | 1015.2 |
| 20260505150106 | 22 | 3 | 4.8 | 9.7 | 0.00 | 0.00 | 0.00 | 32 | 1015.4 |
| 20260505140505 | 22 | 22 | 3.2 | 9.7 | 0.00 | 0.00 | 0.00 | 34 | 1015.1 |
| 20260505140305 | 22 | 60 | 3.2 | 9.7 | 0.00 | 0.00 | 0.00 | 34 | 1015.1 |
| 20260505140105 | 22 | 339 | 4.8 | 8.0 | 0.00 | 0.00 | 0.00 | 33 | 1015.2 |
| 20260505130253 | 23 | 286 | 1.6 | 6.4 | 0.00 | 0.00 | 0.00 | 32 | 1015.4 |
| 20260505124854 | 22 | 324 | 1.6 | 8.0 | 0.00 | 0.00 | 0.00 | 37 | 1015.3 |
| 20260505124654 | 22 | 110 | 1.6 | 8.0 | 0.00 | 0.00 | 0.00 | 36 | 1015.5 |
| 20260505124454 | 22 | 207 | 0.0 | 8.0 | 0.00 | 0.00 | 0.00 | 35 | 1015.4 |
| 20260505124254 | 22 | 347 | 4.8 | 12.9 | 0.00 | 0.00 | 0.00 | 35 | 1015.4 |
| 20260505124053 | 22 | 3 | 3.2 | 12.9 | 0.00 | 0.00 | 0.00 | 36 | 1015.4 |
| 20260505123854 | 22 | 2 | 0.0 | 12.9 | 0.00 | 0.00 | 0.00 | 35 | 1015.3 |
| 20260505123654 | 22 | 1 | 4.8 | 12.9 | 0.00 | 0.00 | 0.00 | 34 | 1015.4 |
| 20260505123454 | 22 | 23 | 3.2 | 12.9 | 0.00 | 0.00 | 0.00 | 34 | 1015.6 |
| 20260505123254 | 23 | 7 | 6.4 | 8.0 | 0.00 | 0.00 | 0.00 | 34 | 1015.5 |
| 20260505123053 | 23 | 42 | 4.8 | 8.0 | 0.00 | 0.00 | 0.00 | 34 | 1015.4 |
| 20260505122853 | 23 | 14 | 3.2 | 8.0 | 0.00 | 0.00 | 0.00 | 34 | 1015.4 |
| 20260505122653 | 23 | 210 | 1.6 | 8.0 | 0.00 | 0.00 | 0.00 | 34 | 1015.4 |
| 20260505122453 | 23 | 10 | 0.0 | 8.0 | 0.00 | 0.00 | 0.00 | 35 | 1015.5 |
| 20260505122253 | 22 | 223 | 0.0 | 12.9 | 0.00 | 0.00 | 0.00 | 36 | 1015.7 |
| 20260505122053 | 22 | 107 | 0.0 | 12.9 | 0.00 | 0.00 | 0.00 | 37 | 1015.6 |
| 20260505121853 | 22 | 31 | 4.8 | 12.9 | 0.00 | 0.00 | 0.00 | 35 | 1015.5 |
| 20260505121653 | 22 | 9 | 4.8 | 12.9 | 0.00 | 0.00 | 0.00 | 35 | 1015.6 |
| 20260505121453 | 22 | 41 | 0.0 | 12.9 | 0.00 | 0.00 | 0.00 | 34 | 1015.4 |
| 20260505121253 | 22 | 18 | 6.4 | 9.7 | 0.00 | 0.00 | 0.00 | 34 | 1015.7 |
| 20260505121053 | 22 | 0 | 3.2 | 9.7 | 0.00 | 0.00 | 0.00 | 34 | 1015.6 |
| 20260505120853 | 23 | 75 | 4.8 | 14.5 | 0.00 | 0.00 | 0.00 | 33 | 1015.5 |
| 20260505120653 | 23 | 4 | 3.2 | 14.5 | 0.00 | 0.00 | 0.00 | 33 | 1015.5 |
| 20260505120453 | 23 | 38 | 3.2 | 14.5 | 0.00 | 0.00 | 0.00 | 34 | 1015.4 |
| 20260505120255 | 23 | 14 | 1.6 | 14.5 | 0.00 | 0.00 | 0.00 | 34 | 1015.7 |
| 20260505115854 | 23 | 24 | 4.8 | 8.0 | 0.00 | 0.00 | 0.00 | 33 | 1015.6 |
| 20260505115654 | 23 | 17 | 1.6 | 8.0 | 0.00 | 0.00 | 0.00 | 34 | 1015.6 |
| 20260505115454 | 23 | 4 | 1.6 | 8.0 | 0.00 | 0.00 | 0.00 | 33 | 1015.9 |
| 20260505115252 | 23 | 253 | 0.0 | 8.0 | 0.00 | 0.00 | 0.00 | 34 | 1015.7 |
| 20260505115054 | 23 | 27 | 3.2 | 8.0 | 0.00 | 0.00 | 0.00 | 33 | 1015.5 |
| 20260505114853 | 23 | 15 | 3.2 | 9.7 | 0.00 | 0.00 | 0.00 | 32 | 1015.7 |
| 20260505114653 | 23 | 40 | 3.2 | 9.7 | 0.00 | 0.00 | 0.00 | 31 | 1015.6 |
| 20260505114453 | 23 | 342 | 4.8 | 9.7 | 0.00 | 0.00 | 0.00 | 31 | 1015.8 |
| 20260505114253 | 23 | 354 | 3.2 | 9.7 | 0.00 | 0.00 | 0.00 | 31 | 1015.7 |
| 20260505114053 | 23 | 1 | 6.4 | 14.5 | 0.00 | 0.00 | 0.00 | 30 | 1015.7 |
| 20260505113853 | 23 | 19 | 4.8 | 14.5 | 0.00 | 0.00 | 0.00 | 31 | 1015.6 |
| 20260505113653 | 23 | 293 | 0.0 | 14.5 | 0.00 | 0.00 | 0.00 | 30 | 1015.7 |
| 20260505113453 | 24 | 15 | 3.2 | 14.5 | 0.00 | 0.00 | 0.00 | 30 | 1015.8 |
| 20260505113254 | 23 | 14 | 3.2 | 14.5 | 0.00 | 0.00 | 0.00 | 31 | 1015.7 |
| 20260505113053 | 23 | 184 | 3.2 | 14.5 | 0.00 | 0.00 | 0.00 | 32 | 1015.8 |
| 20260505112854 | 23 | 341 | 3.2 | 14.5 | 0.00 | 0.00 | 0.00 | 32 | 1015.6 |
| 20260505112653 | 22 | 25 | 6.4 | 14.5 | 0.00 | 0.00 | 0.00 | 33 | 1015.8 |
| 20260505112454 | 22 | 357 | 3.2 | 14.5 | 0.00 | 0.00 | 0.00 | 34 | 1015.6 |
| 20260505112254 | 22 | 358 | 1.6 | 16.1 | 0.00 | 0.00 | 0.00 | 33 | 1015.6 |
| 20260505112055 | 23 | 23 | 8.0 | 16.1 | 0.00 | 0.00 | 0.00 | 33 | 1015.8 |
| 20260505111854 | 23 | 7 | 4.8 | 16.1 | 0.00 | 0.00 | 0.00 | 32 | 1015.7 |
| 20260505111656 | 23 | 112 | 0.0 | 16.1 | 0.00 | 0.00 | 0.00 | 32 | 1015.7 |
| 20260505111454 | 23 | 16 | 6.4 | 16.1 | 0.00 | 0.00 | 0.00 | 31 | 1015.6 |
| 20260505111253 | 23 | 19 | 4.8 | 17.7 | 0.00 | 0.00 | 0.00 | 31 | 1015.6 |
| 20260505111053 | 24 | 30 | 6.4 | 17.7 | 0.00 | 0.00 | 0.00 | 30 | 1015.9 |
| 20260505110853 | 23 | 305 | 1.6 | 17.7 | 0.00 | 0.00 | 0.00 | 31 | 1015.6 |
| 20260505110653 | 23 | 26 | 3.2 | 17.7 | 0.00 | 0.00 | 0.00 | 30 | 1015.7 |
| 20260505110453 | 23 | 317 | 0.0 | 17.7 | 0.00 | 0.00 | 0.00 | 31 | 1015.7 |
| 20260505110253 | 23 | 13 | 3.2 | 17.7 | 0.00 | 0.00 | 0.00 | 32 | 1015.9 |
| 20260505102106 | 23 | 174 | 4.8 | 9.7 | 0.00 | 0.00 | 0.00 | 39 | 1016.0 |
| 20260505101853 | 22 | 75 | 3.2 | 9.7 | 0.00 | 0.00 | 0.00 | 40 | 1016.0 |
| 20260505101653 | 23 | 190 | 4.8 | 9.7 | 0.00 | 0.00 | 0.00 | 38 | 1015.9 |
| 20260505101454 | 23 | 181 | 3.2 | 9.7 | 0.00 | 0.00 | 0.00 | 39 | 1015.9 |
| 20260505101254 | 23 | 192 | 3.2 | 8.0 | 0.00 | 0.00 | 0.00 | 39 | 1016.0 |
| 20260505101054 | 23 | 198 | 3.2 | 8.0 | 0.00 | 0.00 | 0.00 | 41 | 1016.0 |
| 20260505100854 | 23 | 323 | 3.2 | 8.0 | 0.00 | 0.00 | 0.00 | 39 | 1015.9 |
| 20260505100654 | 23 | 249 | 1.6 | 8.0 | 0.00 | 0.00 | 0.00 | 38 | 1015.8 |
| 20260505100454 | 23 | 162 | 1.6 | 8.0 | 0.00 | 0.00 | 0.00 | 40 | 1015.9 |
| 20260505100254 | 23 | 213 | 3.2 | 4.8 | 0.00 | 0.00 | 0.00 | 42 | 1016.1 |
| 20260505100053 | 23 | 223 | 3.2 | 4.8 | 0.00 | 0.00 | 0.00 | 43 | 1015.9 |
| 20260505095854 | 23 | 86 | 3.2 | 6.4 | 0.00 | 0.00 | 0.00 | 39 | 1016.0 |
| 20260505095655 | 22 | 243 | 0.0 | 8.0 | 0.00 | 0.00 | 0.00 | 41 | 1015.8 |
| 20260505095453 | 22 | 227 | 4.8 | 9.7 | 0.00 | 0.00 | 0.00 | 47 | 1016.1 |
| 20260505095253 | 22 | 91 | 0.0 | 9.7 | 0.00 | 0.00 | 0.00 | 40 | 1016.0 |
| 20260505095053 | 22 | 184 | 3.2 | 9.7 | 0.00 | 0.00 | 0.00 | 43 | 1016.1 |
| 20260505094853 | 22 | 148 | 4.8 | 9.7 | 0.00 | 0.00 | 0.00 | 42 | 1016.2 |
| 20260505094653 | 22 | 192 | 6.4 | 9.7 | 0.00 | 0.00 | 0.00 | 40 | 1016.3 |
| 20260505094453 | 22 | 195 | 3.2 | 9.7 | 0.00 | 0.00 | 0.00 | 43 | 1016.2 |
| 20260505094253 | 22 | 186 | 6.4 | 9.7 | 0.00 | 0.00 | 0.00 | 43 | 1016.2 |
| 20260505094054 | 22 | 60 | 3.2 | 9.7 | 0.00 | 0.00 | 0.00 | 40 | 1016.1 |
| 20260505093853 | 22 | 166 | 0.0 | 8.0 | 0.00 | 0.00 | 0.00 | 42 | 1016.3 |
| 20260505093653 | 22 | 121 | 0.0 | 9.7 | 0.00 | 0.00 | 0.00 | 42 | 1016.2 |
| 20260505093453 | 22 | 222 | 3.2 | 9.7 | 0.00 | 0.00 | 0.00 | 41 | 1016.3 |
| 20260505093253 | 22 | 26 | 1.6 | 9.7 | 0.00 | 0.00 | 0.00 | 39 | 1016.2 |
| 20260505093053 | 22 | 2 | 3.2 | 9.7 | 0.00 | 0.00 | 0.00 | 40 | 1016.3 |
| 20260505092853 | 22 | 174 | 3.2 | 9.7 | 0.00 | 0.00 | 0.00 | 40 | 1016.2 |
| 20260505092653 | 22 | 229 | 0.0 | 9.7 | 0.00 | 0.00 | 0.00 | 44 | 1016.4 |
| 20260505092453 | 22 | 261 | 3.2 | 9.7 | 0.00 | 0.00 | 0.00 | 44 | 1016.3 |
| 20260505092253 | 22 | 152 | 3.2 | 9.7 | 0.00 | 0.00 | 0.00 | 43 | 1016.3 |
| 20260505092053 | 22 | 7 | 3.2 | 9.7 | 0.00 | 0.00 | 0.00 | 42 | 1016.3 |
| 20260505091853 | 22 | 179 | 9.7 | 9.7 | 0.00 | 0.00 | 0.00 | 42 | 1016.3 |
| 20260505091653 | 22 | 148 | 3.2 | 9.7 | 0.00 | 0.00 | 0.00 | 44 | 1016.4 |
| 20260505091455 | 22 | 177 | 4.8 | 9.7 | 0.00 | 0.00 | 0.00 | 41 | 1016.3 |
| 20260505091253 | 22 | 144 | 3.2 | 9.7 | 0.00 | 0.00 | 0.00 | 42 | 1016.4 |
| 20260505091053 | 21 | 127 | 1.6 | 9.7 | 0.00 | 0.00 | 0.00 | 47 | 1016.5 |
| 20260505090854 | 21 | 143 | 3.2 | 8.0 | 0.00 | 0.00 | 0.00 | 45 | 1016.3 |
| 20260505090654 | 22 | 182 | 4.8 | 6.4 | 0.00 | 0.00 | 0.00 | 44 | 1016.2 |
| 20260505090454 | 22 | 153 | 1.6 | 6.4 | 0.00 | 0.00 | 0.00 | 44 | 1016.5 |
| 20260505090254 | 21 | 125 | 1.6 | 11.3 | 0.00 | 0.00 | 0.00 | 44 | 1016.4 |
| 20260505090054 | 21 | 184 | 3.2 | 11.3 | 0.00 | 0.00 | 0.00 | 47 | 1016.4 |
| 20260505085854 | 21 | 43 | 3.2 | 11.3 | 0.00 | 0.00 | 0.00 | 45 | 1016.5 |
| 20260505085654 | 21 | 24 | 4.8 | 11.3 | 0.00 | 0.00 | 0.00 | 43 | 1016.7 |
| 20260505085454 | 21 | 138 | 3.2 | 11.3 | 0.00 | 0.00 | 0.00 | 46 | 1016.5 |
| 20260505085253 | 21 | 344 | 3.2 | 6.4 | 0.00 | 0.00 | 0.00 | 46 | 1016.6 |
| 20260505085053 | 21 | 69 | 3.2 | 6.4 | 0.00 | 0.00 | 0.00 | 48 | 1016.6 |
| 20260505084854 | 21 | 218 | 1.6 | 6.4 | 0.00 | 0.00 | 0.00 | 47 | 1016.6 |
| 20260505084654 | 21 | 20 | 3.2 | 6.4 | 0.00 | 0.00 | 0.00 | 46 | 1016.6 |
| 20260505084455 | 21 | 59 | 3.2 | 6.4 | 0.00 | 0.00 | 0.00 | 48 | 1016.6 |
| 20260505084254 | 21 | 155 | 3.2 | 6.4 | 0.00 | 0.00 | 0.00 | 50 | 1016.6 |
| 20260505084054 | 21 | 282 | 0.0 | 6.4 | 0.00 | 0.00 | 0.00 | 50 | 1016.7 |
| 20260505083854 | 21 | 153 | 1.6 | 8.0 | 0.00 | 0.00 | 0.00 | 49 | 1016.6 |
| 20260505083653 | 20 | 98 | 1.6 | 8.0 | 0.00 | 0.00 | 0.00 | 48 | 1016.7 |
| 20260505083453 | 20 | 315 | 0.0 | 8.0 | 0.00 | 0.00 | 0.00 | 50 | 1016.7 |
| 20260505083255 | 21 | 19 | 3.2 | 8.0 | 0.00 | 0.00 | 0.00 | 48 | 1016.7 |
| 20260505083054 | 20 | 200 | 3.2 | 8.0 | 0.00 | 0.00 | 0.00 | 49 | 1016.7 |
| 20260505082854 | 20 | 149 | 3.2 | 4.8 | 0.00 | 0.00 | 0.00 | 49 | 1016.7 |
| 20260505082654 | 20 | 24 | 1.6 | 4.8 | 0.00 | 0.00 | 0.00 | 48 | 1016.7 |
| 20260505082453 | 20 | 21 | 3.2 | 6.4 | 0.00 | 0.00 | 0.00 | 48 | 1016.8 |
| 20260505082253 | 20 | 72 | 0.0 | 8.0 | 0.00 | 0.00 | 0.00 | 49 | 1016.8 |
| 20260505082053 | 20 | 148 | 3.2 | 8.0 | 0.00 | 0.00 | 0.00 | 48 | 1017.0 |
| 20260505081853 | 20 | 333 | 0.0 | 8.0 | 0.00 | 0.00 | 0.00 | 49 | 1016.8 |
| 20260505081653 | 20 | 338 | 0.0 | 8.0 | 0.00 | 0.00 | 0.00 | 49 | 1016.7 |
| 20260505081453 | 20 | 168 | 3.2 | 8.0 | 0.00 | 0.00 | 0.00 | 51 | 1016.6 |
| 20260505081253 | 19 | 51 | 3.2 | 6.4 | 0.00 | 0.00 | 0.00 | 51 | 1016.4 |
| 20260505081054 | 20 | 133 | 6.4 | 6.4 | 0.00 | 0.00 | 0.00 | 52 | 1016.7 |
| 20260505080853 | 19 | 171 | 4.8 | 6.4 | 0.00 | 0.00 | 0.00 | 52 | 1016.7 |
| 20260505080653 | 19 | 143 | 6.4 | 6.4 | 0.00 | 0.00 | 0.00 | 53 | 1017.0 |
| 20260505080453 | 19 | 348 | 1.6 | 4.8 | 0.00 | 0.00 | 0.00 | 53 | 1017.0 |
| 20260505080253 | 19 | 44 | 0.0 | 4.8 | 0.00 | 0.00 | 0.00 | 52 | 1016.7 |
| 20260505080053 | 20 | 4 | 1.6 | 4.8 | 0.00 | 0.00 | 0.00 | 51 | 1016.8 |
| 20260505075853 | 20 | 220 | 0.0 | 3.2 | 0.00 | 0.00 | 0.00 | 52 | 1017.0 |
| 20260505075653 | 20 | 186 | 0.0 | 4.8 | 0.00 | 0.00 | 0.00 | 50 | 1016.8 |
| 20260505075454 | 20 | 124 | 3.2 | 4.8 | 0.00 | 0.00 | 0.00 | 52 | 1017.0 |
| 20260505075254 | 20 | 157 | 1.6 | 4.8 | 0.00 | 0.00 | 0.00 | 53 | 1017.1 |
| 20260505075055 | 19 | 44 | 0.0 | 4.8 | 0.00 | 0.00 | 0.00 | 51 | 1017.0 |
| 20260505074854 | 19 | 40 | 3.2 | 4.8 | 0.00 | 0.00 | 0.00 | 52 | 1017.0 |
| 20260505074659 | 19 | 55 | 0.0 | 4.8 | 0.00 | 0.00 | 0.00 | 54 | 1017.1 |
| 20260505074453 | 19 | 182 | 1.6 | 4.8 | 0.00 | 0.00 | 0.00 | 57 | 1017.0 |
| 20260505074253 | 19 | 181 | 3.2 | 4.8 | 0.00 | 0.00 | 0.00 | 53 | 1016.8 |
| 20260505074053 | 19 | 133 | 1.6 | 4.8 | 0.00 | 0.00 | 0.00 | 55 | 1016.8 |
| 20260505073853 | 19 | 156 | 3.2 | 4.8 | 0.00 | 0.00 | 0.00 | 51 | 1017.0 |
| 20260505073653 | 19 | 4 | 0.0 | 4.8 | 0.00 | 0.00 | 0.00 | 51 | 1017.1 |
| 20260505073453 | 18 | 68 | 0.0 | 4.8 | 0.00 | 0.00 | 0.00 | 53 | 1017.1 |
| 20260505073253 | 18 | 29 | 3.2 | 4.8 | 0.00 | 0.00 | 0.00 | 53 | 1016.7 |
| 20260505073053 | 18 | 166 | 0.0 | 4.8 | 0.00 | 0.00 | 0.00 | 53 | 1017.0 |
| 20260505072854 | 18 | 315 | 0.0 | 4.8 | 0.00 | 0.00 | 0.00 | 54 | 1016.8 |
| 20260505072654 | 18 | 12 | 3.2 | 4.8 | 0.00 | 0.00 | 0.00 | 53 | 1016.8 |
| 20260505072453 | 18 | 204 | 0.0 | 4.8 | 0.00 | 0.00 | 0.00 | 53 | 1017.1 |
| 20260505072253 | 18 | 156 | 3.2 | 4.8 | 0.00 | 0.00 | 0.00 | 52 | 1017.2 |
| 20260505072054 | 17 | 112 | 3.2 | 4.8 | 0.00 | 0.00 | 0.00 | 53 | 1016.8 |
| 20260505071854 | 18 | 38 | 0.0 | 3.2 | 0.00 | 0.00 | 0.00 | 54 | 1017.0 |
| 20260505071653 | 18 | 179 | 1.6 | 3.2 | 0.00 | 0.00 | 0.00 | 54 | 1017.0 |
| 20260505071453 | 17 | 359 | 0.0 | 4.8 | 0.00 | 0.00 | 0.00 | 55 | 1017.1 |
| 20260505071254 | 17 | 136 | 1.6 | 6.4 | 0.00 | 0.00 | 0.00 | 55 | 1017.2 |
| 20260505071053 | 16 | 131 | 0.0 | 6.4 | 0.00 | 0.00 | 0.00 | 57 | 1017.0 |
| 20260505070854 | 16 | 225 | 3.2 | 6.4 | 0.00 | 0.00 | 0.00 | 59 | 1017.0 |
| 20260505070653 | 16 | 222 | 3.2 | 6.4 | 0.00 | 0.00 | 0.00 | 65 | 1017.1 |
| 20260505070453 | 16 | 219 | 6.4 | 6.4 | 0.00 | 0.00 | 0.00 | 61 | 1017.1 |
| 20260505070253 | 16 | 269 | 0.0 | 4.8 | 0.00 | 0.00 | 0.00 | 58 | 1017.0 |
| 20260505070054 | 16 | 174 | 3.2 | 4.8 | 0.00 | 0.00 | 0.00 | 59 | 1017.0 |
| 20260505065854 | 16 | 176 | 1.6 | 4.8 | 0.00 | 0.00 | 0.00 | 60 | 1017.2 |
| 20260505065654 | 17 | 156 | 3.2 | 3.2 | 0.00 | 0.00 | 0.00 | 56 | 1017.0 |
| 20260505065454 | 17 | 57 | 1.6 | 3.2 | 0.00 | 0.00 | 0.00 | 56 | 1017.3 |
| 20260505065253 | 17 | 149 | 1.6 | 3.2 | 0.00 | 0.00 | 0.00 | 57 | 1017.3 |
| 20260505065054 | 16 | 191 | 3.2 | 6.4 | 0.00 | 0.00 | 0.00 | 58 | 1017.2 |
| 20260505064853 | 16 | 224 | 0.0 | 6.4 | 0.00 | 0.00 | 0.00 | 60 | 1017.2 |
| 20260505064653 | 16 | 188 | 1.6 | 6.4 | 0.00 | 0.00 | 0.00 | 61 | 1017.0 |
| 20260505064453 | 16 | 152 | 0.0 | 6.4 | 0.00 | 0.00 | 0.00 | 58 | 1016.8 |
| 20260505064253 | 16 | 36 | 3.2 | 6.4 | 0.00 | 0.00 | 0.00 | 59 | 1017.1 |
| 20260505064053 | 16 | 152 | 3.2 | 3.2 | 0.00 | 0.00 | 0.00 | 60 | 1017.0 |
| 20260505063858 | 15 | 226 | 0.0 | 4.8 | 0.00 | 0.00 | 0.00 | 62 | 1017.1 |
| 20260505063654 | 15 | 170 | 0.0 | 4.8 | 0.00 | 0.00 | 0.00 | 62 | 1017.3 |
| 20260505063453 | 15 | 135 | 0.0 | 4.8 | 0.00 | 0.00 | 0.00 | 61 | 1017.2 |
| 20260505063253 | 15 | 354 | 0.0 | 4.8 | 0.00 | 0.00 | 0.00 | 61 | 1017.1 |
| 20260505063053 | 15 | 86 | 1.6 | 4.8 | 0.00 | 0.00 | 0.00 | 62 | 1017.0 |
| 20260505062853 | 15 | 92 | 1.6 | 4.8 | 0.00 | 0.00 | 0.00 | 62 | 1017.2 |
| 20260505062654 | 15 | 143 | 3.2 | 4.8 | 0.00 | 0.00 | 0.00 | 61 | 1017.0 |
| 20260505062453 | 14 | 149 | 3.2 | 4.8 | 0.00 | 0.00 | 0.00 | 62 | 1017.1 |
| 20260505062253 | 14 | 186 | 1.6 | 4.8 | 0.00 | 0.00 | 0.00 | 66 | 1017.1 |
| 20260505062053 | 14 | 163 | 1.6 | 4.8 | 0.00 | 0.00 | 0.00 | 64 | 1017.2 |
| 20260505061854 | 14 | 151 | 0.0 | 4.8 | 0.00 | 0.00 | 0.00 | 64 | 1017.2 |
| 20260505061654 | 15 | 180 | 1.6 | 3.2 | 0.00 | 0.00 | 0.00 | 62 | 1017.1 |
| 20260505061454 | 15 | 142 | 0.0 | 3.2 | 0.00 | 0.00 | 0.00 | 61 | 1017.1 |
| 20260505061255 | 14 | 84 | 0.0 | 3.2 | 0.00 | 0.00 | 0.00 | 64 | 1017.0 |
| 20260505061054 | 14 | 135 | 0.0 | 4.8 | 0.00 | 0.00 | 0.00 | 64 | 1017.1 |
| 20260505060853 | 14 | 160 | 0.0 | 4.8 | 0.00 | 0.00 | 0.00 | 63 | 1017.0 |
| 20260505060653 | 13 | 144 | 1.6 | 4.8 | 0.00 | 0.00 | 0.00 | 67 | 1017.1 |
| 20260505060453 | 13 | 141 | 1.6 | 4.8 | 0.00 | 0.00 | 0.00 | 66 | 1017.2 |
| 20260505060253 | 13 | 88 | 3.2 | 4.8 | 0.00 | 0.00 | 0.00 | 67 | 1017.2 |
| 20260505060053 | 14 | 135 | 3.2 | 4.8 | 0.00 | 0.00 | 0.00 | 67 | 1017.0 |
| 20260505055853 | 13 | 74 | 0.0 | 4.8 | 0.00 | 0.00 | 0.00 | 69 | 1017.0 |
| 20260505055653 | 13 | 142 | 0.0 | 4.8 | 0.00 | 0.00 | 0.00 | 71 | 1017.0 |
| 20260505055453 | 12 | 114 | 1.6 | 4.8 | 0.00 | 0.00 | 0.00 | 70 | 1017.0 |
| 20260505055253 | 12 | 185 | 0.0 | 4.8 | 0.00 | 0.00 | 0.00 | 74 | 1017.0 |
| 20260505055055 | 12 | 157 | 1.6 | 3.2 | 0.00 | 0.00 | 0.00 | 73 | 1016.7 |
| 20260505054853 | 12 | 159 | 0.0 | 3.2 | 0.00 | 0.00 | 0.00 | 73 | 1017.0 |
| 20260505054653 | 12 | 142 | 0.0 | 3.2 | 0.00 | 0.00 | 0.00 | 74 | 1017.0 |
| 20260505054454 | 12 | 125 | 1.6 | 3.2 | 0.00 | 0.00 | 0.00 | 75 | 1016.8 |
| 20260505054253 | 12 | 258 | 1.6 | 3.2 | 0.00 | 0.00 | 0.00 | 74 | 1017.1 |
| 20260505054053 | 12 | 301 | 0.0 | 3.2 | 0.00 | 0.00 | 0.00 | 73 | 1017.0 |
| 20260505053854 | 12 | 202 | 1.6 | 3.2 | 0.00 | 0.00 | 0.00 | 75 | 1017.0 |
| 20260505053654 | 12 | 129 | 0.0 | 4.8 | 0.00 | 0.00 | 0.00 | 77 | 1017.1 |
| 20260505053454 | 11 | 114 | 0.0 | 4.8 | 0.00 | 0.00 | 0.00 | 79 | 1016.7 |
| 20260505053254 | 11 | 164 | 1.6 | 4.8 | 0.00 | 0.00 | 0.00 | 80 | 1017.1 |
| 20260505053054 | 10 | 123 | 0.0 | 4.8 | 0.00 | 0.00 | 0.00 | 81 | 1016.8 |
| 20260505052853 | 10 | 154 | 3.2 | 4.8 | 0.00 | 0.00 | 0.00 | 80 | 1017.1 |
| 20260505052654 | 10 | 66 | 0.0 | 4.8 | 0.00 | 0.00 | 0.00 | 82 | 1016.8 |
| 20260505052453 | 10 | 197 | 1.6 | 4.8 | 0.00 | 0.00 | 0.00 | 83 | 1016.8 |
| 20260505052254 | 10 | 197 | 3.2 | 3.2 | 0.00 | 0.00 | 0.00 | 83 | 1016.8 |
| 20260505052053 | 10 | 159 | 1.6 | 3.2 | 0.00 | 0.00 | 0.00 | 83 | 1016.7 |
| 20260505051853 | 10 | 129 | 1.6 | 3.2 | 0.00 | 0.00 | 0.00 | 84 | 1017.0 |
| 20260505051653 | 9 | 115 | 1.6 | 3.2 | 0.00 | 0.00 | 0.00 | 85 | 1016.7 |
| 20260505051453 | 9 | 167 | 3.2 | 3.2 | 0.00 | 0.00 | 0.00 | 85 | 1016.8 |
| 20260505051253 | 9 | 246 | 0.0 | 3.2 | 0.00 | 0.00 | 0.00 | 85 | 1017.1 |
| 20260505051053 | 9 | 277 | 0.0 | 3.2 | 0.00 | 0.00 | 0.00 | 85 | 1016.8 |
| 20260505050853 | 8 | 254 | 0.0 | 3.2 | 0.00 | 0.00 | 0.00 | 85 | 1016.7 |
| 20260505050653 | 9 | 150 | 3.2 | 3.2 | 0.00 | 0.00 | 0.00 | 85 | 1017.0 |
| 20260505050453 | 8 | 186 | 0.0 | 4.8 | 0.00 | 0.00 | 0.00 | 85 | 1016.7 |
| 20260505050254 | 8 | 234 | 0.0 | 4.8 | 0.00 | 0.00 | 0.00 | 85 | 1016.8 |
| 20260505041654 | 5 | 30 | 0.0 | 4.8 | 0.00 | 0.00 | 0.00 | 95 | 1016.7 |
| 20260505041453 | 5 | 160 | 0.0 | 6.4 | 0.00 | 0.00 | 0.00 | 96 | 1016.6 |
| 20260505041254 | 5 | 119 | 0.0 | 6.4 | 0.00 | 0.00 | 0.00 | 96 | 1016.7 |
| 20260505041054 | 4 | 119 | 0.0 | 6.4 | 0.00 | 0.00 | 0.00 | 96 | 1017.0 |
| 20260505040853 | 4 | 169 | 3.2 | 8.0 | 0.00 | 0.00 | 0.00 | 96 | 1017.0 |
| 20260505040654 | 4 | 139 | 1.6 | 9.7 | 0.00 | 0.00 | 0.00 | 97 | 1016.6 |
| 20260505040453 | 4 | 166 | 3.2 | 9.7 | 0.00 | 0.00 | 0.00 | 97 | 1016.7 |
| 20260505040254 | 3 | 158 | 3.2 | 9.7 | 0.00 | 0.00 | 0.00 | 97 | 1016.7 |
| 20260505040053 | 3 | 166 | 3.2 | 9.7 | 0.00 | 0.00 | 0.00 | 97 | 1016.7 |
| 20260505035854 | 3 | 130 | 6.4 | 9.7 | 0.00 | 0.00 | 0.00 | 97 | 1016.6 |
| 20260505035653 | 3 | 172 | 3.2 | 6.4 | 0.00 | 0.00 | 0.00 | 97 | 1016.5 |
| 20260505035453 | 3 | 197 | 3.2 | 4.8 | 0.00 | 0.00 | 0.00 | 97 | 1016.6 |
| 20260505035253 | 3 | 126 | 0.0 | 3.2 | 0.00 | 0.00 | 0.00 | 97 | 1016.6 |
| 20260505035053 | 3 | 138 | 1.6 | 3.2 | 0.00 | 0.00 | 0.00 | 97 | 1016.6 |
| 20260505034853 | 4 | 144 | 1.6 | 3.2 | 0.00 | 0.00 | 0.00 | 97 | 1016.5 |
| 20260505034653 | 4 | 135 | 1.6 | 3.2 | 0.00 | 0.00 | 0.00 | 98 | 1016.8 |
| 20260505034453 | 4 | 204 | 0.0 | 3.2 | 0.00 | 0.00 | 0.00 | 98 | 1016.5 |
| 20260505034253 | 4 | 89 | 0.0 | 3.2 | 0.00 | 0.00 | 0.00 | 98 | 1016.6 |
| 20260505034054 | 3 | 106 | 0.0 | 3.2 | 0.00 | 0.00 | 0.00 | 98 | 1016.6 |
| 20260505033855 | 3 | 89 | 0.0 | 4.8 | 0.00 | 0.00 | 0.00 | 98 | 1016.7 |
| 20260505033653 | 3 | 2 | 1.6 | 6.4 | 0.00 | 0.00 | 0.00 | 98 | 1016.5 |
| 20260505033453 | 3 | 129 | 0.0 | 9.7 | 0.00 | 0.00 | 0.00 | 98 | 1016.5 |
| 20260505033253 | 3 | 108 | 1.6 | 9.7 | 0.00 | 0.00 | 0.00 | 98 | 1016.6 |
| 20260505033057 | 3 | 214 | 3.2 | 9.7 | 0.00 | 0.00 | 0.00 | 98 | 1016.5 |
| 20260505032853 | 3 | 211 | 3.2 | 9.7 | 0.00 | 0.00 | 0.00 | 98 | 1016.6 |
| 20260505032653 | 3 | 154 | 1.6 | 9.7 | 0.00 | 0.00 | 0.00 | 98 | 1016.6 |
| 20260505032454 | 3 | 142 | 6.4 | 9.7 | 0.00 | 0.00 | 0.00 | 98 | 1016.3 |
| 20260505032254 | 3 | 183 | 6.4 | 8.0 | 0.00 | 0.00 | 0.00 | 98 | 1016.4 |
| 20260505032054 | 3 | 174 | 4.8 | 6.4 | 0.00 | 0.00 | 0.00 | 98 | 1016.8 |
| 20260505031854 | 3 | 181 | 1.6 | 4.8 | 0.00 | 0.00 | 0.00 | 98 | 1016.4 |
| 20260505031653 | 3 | 166 | 3.2 | 4.8 | 0.00 | 0.00 | 0.00 | 98 | 1016.6 |
| 20260505031454 | 3 | 169 | 3.2 | 4.8 | 0.00 | 0.00 | 0.00 | 98 | 1016.6 |
| 20260505031254 | 3 | 171 | 1.6 | 4.8 | 0.00 | 0.00 | 0.00 | 97 | 1016.6 |
| 20260505031053 | 3 | 182 | 0.0 | 4.8 | 0.00 | 0.00 | 0.00 | 97 | 1016.6 |
| 20260505030853 | 3 | 106 | 3.2 | 4.8 | 0.00 | 0.00 | 0.00 | 97 | 1016.6 |
| 20260505030655 | 3 | 180 | 3.2 | 4.8 | 0.00 | 0.00 | 0.00 | 97 | 1016.4 |
| 20260505030453 | 3 | 165 | 1.6 | 4.8 | 0.00 | 0.00 | 0.00 | 97 | 1016.5 |
| 20260505030256 | 3 | 176 | 3.2 | 4.8 | 0.00 | 0.00 | 0.00 | 97 | 1016.6 |
| 20260505030053 | 3 | 192 | 3.2 | 3.2 | 0.00 | 0.00 | 0.00 | 97 | 1016.7 |
| 20260505025853 | 3 | 354 | 0.0 | 3.2 | 0.00 | 0.00 | 0.00 | 97 | 1016.6 |
| 20260505025654 | 3 | 48 | 0.0 | 3.2 | 0.00 | 0.00 | 0.00 | 97 | 1016.6 |
| 20260505025454 | 3 | 349 | 0.0 | 3.2 | 0.00 | 0.00 | 0.00 | 97 | 1016.4 |
| 20260505025253 | 3 | 56 | 0.0 | 3.2 | 0.00 | 0.00 | 0.00 | 97 | 1016.6 |
| 20260505025053 | 3 | 82 | 0.0 | 3.2 | 0.00 | 0.00 | 0.00 | 97 | 1016.4 |
| 20260505024853 | 3 | 37 | 0.0 | 3.2 | 0.00 | 0.00 | 0.00 | 97 | 1016.4 |
| 20260505024654 | 3 | 22 | 1.6 | 3.2 | 0.00 | 0.00 | 0.00 | 97 | 1016.7 |
| 20260505024453 | 3 | 342 | 1.6 | 3.2 | 0.00 | 0.00 | 0.00 | 97 | 1016.5 |
| 20260505024253 | 3 | 37 | 0.0 | 3.2 | 0.00 | 0.00 | 0.00 | 97 | 1016.5 |
| 20260505024054 | 3 | 33 | 3.2 | 3.2 | 0.00 | 0.00 | 0.00 | 97 | 1016.5 |
| 20260505023854 | 3 | 44 | 0.0 | 3.2 | 0.00 | 0.00 | 0.00 | 97 | 1016.5 |
| 20260505023652 | 3 | 17 | 0.0 | 3.2 | 0.00 | 0.00 | 0.00 | 97 | 1016.7 |
| 20260505023453 | 3 | 84 | 0.0 | 3.2 | 0.00 | 0.00 | 0.00 | 97 | 1016.7 |
| 20260505023253 | 3 | 336 | 0.0 | 3.2 | 0.00 | 0.00 | 0.00 | 97 | 1016.8 |
| 20260505023054 | 3 | 16 | 0.0 | 3.2 | 0.00 | 0.00 | 0.00 | 97 | 1016.5 |
| 20260505022853 | 3 | 16 | 1.6 | 3.2 | 0.00 | 0.00 | 0.00 | 97 | 1016.5 |
| 20260505022653 | 3 | 100 | 3.2 | 3.2 | 0.00 | 0.00 | 0.00 | 97 | 1016.4 |
| 20260505022454 | 3 | 140 | 1.6 | 3.2 | 0.00 | 0.00 | 0.00 | 97 | 1016.7 |
| 20260505022254 | 3 | 13 | 0.0 | 3.2 | 0.00 | 0.00 | 0.00 | 97 | 1016.4 |
| 20260505022054 | 3 | 274 | 1.6 | 3.2 | 0.00 | 0.00 | 0.00 | 97 | 1016.6 |
| 20260505021854 | 3 | 207 | 0.0 | 3.2 | 0.00 | 0.00 | 0.00 | 97 | 1016.4 |
| 20260505021654 | 3 | 322 | 1.6 | 3.2 | 0.00 | 0.00 | 0.00 | 97 | 1016.6 |
| 20260505021454 | 3 | 282 | 0.0 | 3.2 | 0.00 | 0.00 | 0.00 | 97 | 1016.6 |
| 20260505021253 | 3 | 336 | 0.0 | 3.2 | 0.00 | 0.00 | 0.00 | 97 | 1016.5 |
| 20260505021053 | 3 | 18 | 0.0 | 3.2 | 0.00 | 0.00 | 0.00 | 97 | 1016.7 |
| 20260505020853 | 3 | 54 | 1.6 | 3.2 | 0.00 | 0.00 | 0.00 | 97 | 1016.4 |
| 20260505020653 | 3 | 37 | 0.0 | 3.2 | 0.00 | 0.00 | 0.00 | 96 | 1016.5 |
| 20260505020453 | 3 | 329 | 3.2 | 3.2 | 0.00 | 0.00 | 0.00 | 96 | 1016.4 |
| 20260505020253 | 3 | 357 | 0.0 | 3.2 | 0.00 | 0.00 | 0.00 | 96 | 1016.5 |
| 20260505020053 | 3 | 331 | 1.6 | 3.2 | 0.00 | 0.00 | 0.00 | 96 | 1016.6 |